星链-32844 (STARLINK-32844)

导读

STARLINK-32844是美国太空探索技术公司(SpaceX)于2025年1月24日发射的星链(Starlink)低轨宽带通信卫星,属于星链巨型星座组网的组成部分。卫星采用平板设计,搭载Ku/Ka波段通信载荷与霍尔推进器,具备自主避撞能力,旨在为全球偏远地区提供宽带互联网服务,预期使用寿命为5至7年,退役后会主动离轨坠入大气层烧毁。

基本信息
目录编号:
62820
目录名称:
STARLINK-32844
国际标识:
2025-018Q
轨道中心:
EARTH
卫星名称:
星链-32844
卫星全名:
星链-32844 (STARLINK-32844)
卫星状态:
在轨 (已飞行589 天)
发射日期:
2025-01-24 UTC
国别 :
美国 (US)
星等 :
--
轨道信息
数据来源 国际轨道数据
星历时间: 2026-09-05T05:16:32+0800
10小时前
查看轨道信息
半长轴: 6848.842km
偏心率: 0.0001054
轨道倾角: 53.157°
近地点辐角 81.114°
升交点赤经 195.869°
平近点角 278.998°
近地点: 469.983km
远地点: 471.427km
周期: 94.012分钟
每日圈数: 15.317119
详细信息
固有亮度:
5
最大亮度:
2.5
卫星平台:
Starlink V1.0
覆盖范围:
全球
运营商:
太空探索技术公司
运营商所在国:
美国
制造商(研发单位):
太空探索技术公司
制造商所在国:
美国
使用方式:
暂无
卫星简介
Starlink 计划是 SpaceX 推出的全球卫星互联网项目,通过发射低轨道卫星,为全球尤其是偏远地区提供高速、低延迟的互联网服务。自 2019 年起,Starlink 已部署数千颗卫星,旨在缩小全球数字鸿沟,推动互联网普及。该项目还为军事、航空等行业提供通信支持,带来广泛经济效益。
2D轨道图
3D轨道图
轨道高度分析图
轨道倾角分析图
轨道综合分析图
查看轨道综合分析图
交会数据列表
事件ID 空间交会对象 最接近时刻(TCA) 交会距离 交会风险概率(CRP) 交会风险指数(CRI) 操作
CDM_260904-184905-866306-282023
2026-09-04T
18:49:27+0000
1.751 km
极远距离
4.111043E-6 低风险 0.47
CDM_260905-184704-353406-282021
2026-09-05T
18:47:54+0000
2.173 km
极远距离
2.075717E-6 低风险 0.41
CDM_260906-064006-282006-435021
2026-09-06T
06:40:15+0000
2.303 km
极远距离
1.724196E-6 低风险 0.4
CDM_260906-164606-282006-904121
2026-09-06T
16:46:17+0000
2.390 km
极远距离
1.57677E-6 低风险 0.39